STARLINK-34085, 64036

Orbit data source: Space-Track

STARLINK-34085, 64036 is a payload satellite owned by SpaceX/Seattle (US) in LEO that was launched on Fri, 16 May 2025 UTC via an FALCON 9 launch vehicle from the Air Force Western Test Range (AFWTR). Payload-class satellites include a variety of spacecraft equipped with specific instruments for various scientific and technological missions. These include communications satellites like Starlink; space stations such as the ISS; scientific satellites like the Hubble; Earth observation satellites from companies like Planet Labs, Umbra, and HawkEye 360; GPS; miniature CubeSats for education and research; and military/defense satellites.

Loading next visibility...
Identifier
64036, 2025-102Q
Orbit
LEO
Country
Flag of USUS
Related business
Manufacturer
SpaceX/Seattle
Mission
Operational Commercial Communications
Bus & Motor
STARLINK V2MO, Unknown motor
Mass
575 kg wet, ~530 kg dry
Launch date (UTC)
2025-05-16 (1 year ago)
Launch vehicle
FALCON 9
Launch site
Air Force Western Test Range (AFWTR)
Object type
Payload
Rocket body
Debris
Shape & HBR
Box + 2 Pan, 17.7 m
Radar Cross Section
36.964 m², Large (>1 m²)

Expand to show TLE details & history
Last TLE update: 11 hours ago

TLE from 11 hours ago
0 STARLINK-34085
1 64036U 25102Q   26171.39305156  .00002092  00000-0  18306-3 0  9992
2 64036  69.9996 215.5960 0003612 266.8835  93.1911 14.98331581 61337
Epoch: 2026-06-20T09:25Z
TLE epoch observation values (Epoch: 2026-06-20T09:25:59.654Z)
Latitude
-0.00002°
Longitude
165.48911°
Altitude
574.616 km
Speed
7.574 km/s
True Right ascension
14h 22m 23s
True Declination
0° 00' 00"
Sunlit
Object was in full shadow at epoch
Visualization orbit readout
Latitude
Unknown
Longitude
Unknown
Altitude
Unknown
Speed
Unknown
Apparent Right ascension
Unknown
Apparent Declination
Unknown
Sunlit
N/A
Visualization observer readout
Local Sidereal Time
07:12:40
Azimuth
Unknown
Elevation
Unknown
Doppler factor
Unknown
Orbital elements
Apogee altitude
572.509 km
Perigee altitude
567.49 km
Semi-major axis
6,948.136 km
Eccentricity
0.00036
Inclination
69.9996°
RAAN
215.596°
Arg. of periapsis
266.8835°
True anomaly
93.23243°
Mean anomaly
93.1911°
Eccentric anomaly
93.21176°
Mean motion
3.74749 °/min
Orbital period
96.06 mins
BSTAR
0.00018306
Loading maneuver chart data...
Computing Atmospheric mass density...
Loading historical data...
Loading historical data...
Loading historical data...
Loading historical data...
Loading historical data...
Loading historical data...
Loading historical data...

Documentation

Showing up to 5 results
|